Regional Weather Roundup
Issued by NWS Cleveland, OH

Home | Current Version | Previous Version | Text Only | Print | Product List | Glossary Off
Versions: 1 2 3 4 5 6 7 8 9 10 11 12 13 14 15 16 17 18 19 20 21 22 23 24 25 26 27 28 29 30 31 32 33 34 35 36 37 38 39 40 41 42 43 44 45 46 47 48 49 50

000
ASUS41 KCLE 022010
RWRCLE
OHIO REGIONAL WEATHER ROUNDUP
NATIONAL WEATHER SERVICE WILMINGTON, OH
400 PM EDT SUN AUG 02 2015

NOTE: "FAIR" INDICATES FEW OR NO CLOUDS BELOW 12,000 FEET WITH NO
SIGNIFICANT WEATHER AND/OR OBSTRUCTIONS TO VISIBILITY.

OHZ001>008-015>018-024>027-034-035-043-044-022100-
   NORTHWEST OHIO

CITY           SKY/WX    TMP DP  RH WIND       PRES   REMARKS
DEFIANCE       SUNNY     91  60  35 SW17G30   29.82F HX  90
FINDLAY        SUNNY     89  62  40 SW23      29.85F
TOLEDO EXPRESS SUNNY     89  61  38 SW18G25   29.80F
TOLEDO EXEC    SUNNY     91  58  32 SW23G32   29.81F HX  90
LIMA           SUNNY     87  64  46 SW16G25   29.88F
$$

OHZ009>014-019>023-028>033-038-089-022100-
   NORTHEAST OHIO

CITY           SKY/WX    TMP DP  RH WIND       PRES   REMARKS
CLE-HOPKINS    MOSUNNY   89  64  43 S15       29.86F HX  90
CLE-LAKEFRONT  MOSUNNY   91  62  37 S18G28    29.81F HX  91
CUY CO. ARPT   MOSUNNY   90  64  43 SW16      29.85F HX  91
LORAIN-ELYRIA  SUNNY     87  64  46 SW13G22   29.85F
ASHTABULA      SUNNY     88  60  38 W10       29.85F
AKRON-CANTON   MOSUNNY   87  63  44 SW17      29.89F
WOOSTER        MOSUNNY   84  64  50 SW13G18   29.90F
MANSFIELD      SUNNY     86  63  45 S16G24    29.90F
YOUNGSTOWN     MOSUNNY   85  64  49 SW13      29.88F
$$

OHZ042-051>053-060>062-070>072-077>081-022100-
  SOUTHWEST OHIO

CITY           SKY/WX    TMP DP  RH WIND       PRES   REMARKS
CINC-COVINGTON MOSUNNY   86  62  44 VRB3      29.96F
CINC-LUNKEN    SUNNY     86  60  41 S10       29.94F
HAMILTON       SUNNY     88  61  40 SW6       29.94F
DAYTON         MOSUNNY   85  61  44 SW18      29.94F
WRIGHT-PAT AFB SUNNY     86  62  44 SW10G21   29.92F
DAYTON GENERAL SUNNY     86  60  41 SW12      29.94F
WILMINGTON     SUNNY     84  62  47 S13       29.96F
$$

OHZ036-037-039>041-045>050-054>059-063>069-073>076-082>088-022100-
  CENTRAL AND SOUTHEAST OHIO

CITY           SKY/WX    TMP DP  RH WIND       PRES   REMARKS
COLUMBUS       MOSUNNY   87  59  38 SW12      29.92F
OSU AIRPORT    MOSUNNY   87  63  44 SW14G21   29.92F
BOLTON FIELD   SUNNY     84  63  48 SW14      29.94F
RICKENBACK AFB SUNNY     86  62  45 SW12      29.93F
NEWARK         MOSUNNY   87  62  43 SW13      29.92F
MARION         SUNNY     86  60  41 SW20      29.90F
LANCASTER      MOSUNNY   86  63  45 SW7       29.94F
ZANESVILLE     SUNNY     86  61  42 SW10G16   29.94F
NEW PHILLY     MOSUNNY   83  65  54 W9G17     29.91F
$$


USA.gov is the U.S. government's official web portal to all federal, state and local government web resources and services.